Location: Narrabri
(30.3170°S, 149.7830°E)
Time: 10:15:42
(UTC+11:00)

OTV 5 (USA 277) - Pass Details

Date: 16 October 2017
Orbit: 404 x 417 km, 43.0° (Epoch: 07 September)

Event Time Altitude Azimuth Distance (km) Brightness Sun altitude
Exits shadow 05:48:47 - 258° (WSW) 1,624 ? -7.8°
Reaches altitude 10° 05:49:15 10° 253° (WSW) 1,473 ? -7.7°
Maximum altitude 05:51:50 21° 202° (SSW) 997 ? -7.2°
Drops below altitude 10° 05:54:26 10° 151° (SSE) 1,479 ? -6.6°
Sets 05:56:54 0° 133° (SE) 2,343 ? -6.1°
